Year,Month,Day,Hour,Minute,Value (Times are PST for windgust in km/hr)
2013,02,24,00,00,8.10
2013,02,24,00,01,4.80
2013,02,24,00,02,4.80
2013,02,24,00,03,6.40
2013,02,24,00,04,4.80
2013,02,24,00,05,8.10
2013,02,24,00,06,9.60
2013,02,24,00,07,4.80
2013,02,24,00,08,9.60
2013,02,24,00,09,9.60
2013,02,24,00,10,6.40
2013,02,24,00,11,4.80
2013,02,24,00,12,8.10
2013,02,24,00,13,8.10
2013,02,24,00,14,8.10
2013,02,24,00,15,11.30
2013,02,24,00,16,6.40
2013,02,24,00,17,6.40
2013,02,24,00,18,8.10
2013,02,24,00,19,8.10
2013,02,24,00,20,9.60
2013,02,24,00,21,8.10
2013,02,24,00,22,14.50
2013,02,24,00,23,8.10
2013,02,24,00,24,11.30
2013,02,24,00,25,9.60
2013,02,24,00,26,16.10
2013,02,24,00,27,17.70
2013,02,24,00,28,12.90
2013,02,24,00,29,16.10
2013,02,24,00,30,9.60
2013,02,24,00,31,6.40
2013,02,24,00,32,4.80
2013,02,24,00,33,8.10
2013,02,24,00,34,9.60
2013,02,24,00,35,12.90
2013,02,24,00,36,8.10
2013,02,24,00,37,6.40
2013,02,24,00,38,8.10
2013,02,24,00,39,17.70
2013,02,24,00,40,16.10
2013,02,24,00,41,9.60
2013,02,24,00,42,16.10
2013,02,24,00,43,6.40
2013,02,24,00,44,4.80
2013,02,24,00,45,14.50
2013,02,24,00,46,12.90
2013,02,24,00,47,8.10
2013,02,24,00,48,4.80
2013,02,24,00,49,6.40
2013,02,24,00,50,8.10
2013,02,24,00,51,11.30
2013,02,24,00,52,22.50
2013,02,24,00,53,17.70
2013,02,24,00,54,11.30
2013,02,24,00,55,19.30
2013,02,24,00,56,17.70
2013,02,24,00,57,12.90
2013,02,24,00,58,4.80
2013,02,24,00,59,8.10
2013,02,24,01,00,8.10
2013,02,24,01,01,8.10
2013,02,24,01,02,11.30
2013,02,24,01,03,8.10
2013,02,24,01,04,9.60
2013,02,24,01,05,8.10
2013,02,24,01,06,6.40
2013,02,24,01,07,6.40
2013,02,24,01,08,6.40
2013,02,24,01,09,4.80
2013,02,24,01,10,4.80
2013,02,24,01,11,4.80
2013,02,24,01,12,3.20
2013,02,24,01,13,3.20
2013,02,24,01,14,8.10
2013,02,24,01,15,4.80
2013,02,24,01,16,3.20
2013,02,24,01,17,6.40
2013,02,24,01,18,6.40
2013,02,24,01,19,6.40
2013,02,24,01,20,1.60
2013,02,24,01,21,3.20
2013,02,24,01,22,1.60
2013,02,24,01,24,3.20
2013,02,24,01,25,6.40
2013,02,24,01,26,3.20
2013,02,24,01,27,4.80
2013,02,24,01,28,4.80
2013,02,24,01,29,3.20
2013,02,24,01,30,1.60
2013,02,24,01,31,3.20
2013,02,24,01,32,3.20
2013,02,24,01,33,4.80
2013,02,24,01,34,1.60
2013,02,24,01,35,3.20
2013,02,24,01,36,4.80
2013,02,24,01,37,3.20
2013,02,24,01,38,4.80
2013,02,24,01,39,1.60
2013,02,24,01,40,3.20
2013,02,24,01,41,4.80
2013,02,24,01,42,3.20
2013,02,24,01,43,3.20
2013,02,24,01,44,3.20
2013,02,24,01,45,4.80
2013,02,24,01,46,1.60
2013,02,24,01,48,1.60
2013,02,24,01,49,1.60
2013,02,24,01,52,6.40
2013,02,24,01,53,6.40
2013,02,24,01,54,3.20
2013,02,24,01,55,3.20
2013,02,24,01,56,6.40
2013,02,24,01,57,3.20
2013,02,24,01,59,1.60
2013,02,24,02,02,3.20
2013,02,24,02,03,3.20
2013,02,24,02,04,3.20
2013,02,24,02,05,3.20
2013,02,24,02,06,1.60
2013,02,24,02,07,3.20
2013,02,24,02,08,3.20
2013,02,24,02,09,6.40
2013,02,24,02,10,4.80
2013,02,24,02,11,3.20
2013,02,24,02,12,3.20
2013,02,24,02,13,6.40
2013,02,24,02,14,8.10
2013,02,24,02,15,6.40
2013,02,24,02,16,3.20
2013,02,24,02,18,1.60
2013,02,24,02,19,4.80
2013,02,24,02,20,1.60
2013,02,24,02,21,4.80
2013,02,24,02,22,9.60
2013,02,24,02,23,4.80
2013,02,24,02,24,6.40
2013,02,24,02,25,3.20
2013,02,24,02,26,3.20
2013,02,24,02,27,4.80
2013,02,24,02,28,1.60
2013,02,24,02,29,1.60
2013,02,24,02,30,1.60
2013,02,24,02,31,1.60
2013,02,24,02,32,4.80
2013,02,24,02,33,3.20
2013,02,24,02,34,1.60
2013,02,24,02,35,1.60
2013,02,24,02,36,4.80
2013,02,24,02,37,6.40
2013,02,24,02,38,8.10
2013,02,24,02,39,4.80
2013,02,24,02,40,1.60
2013,02,24,02,41,3.20
2013,02,24,02,42,3.20
2013,02,24,02,43,4.80
2013,02,24,02,44,4.80
2013,02,24,02,45,4.80
2013,02,24,02,46,1.60
2013,02,24,02,47,4.80
2013,02,24,02,48,4.80
2013,02,24,02,49,3.20
2013,02,24,02,50,4.80
2013,02,24,02,51,3.20
2013,02,24,02,56,4.80
2013,02,24,02,57,8.10
2013,02,24,02,58,6.40
2013,02,24,02,59,3.20
2013,02,24,03,00,1.60
2013,02,24,03,02,4.80
2013,02,24,03,03,1.60
2013,02,24,03,04,1.60
2013,02,24,03,05,1.60
2013,02,24,03,06,3.20
2013,02,24,03,07,3.20
2013,02,24,03,08,4.80
2013,02,24,03,09,3.20
2013,02,24,03,10,3.20
2013,02,24,03,11,4.80
2013,02,24,03,12,4.80
2013,02,24,03,13,3.20
2013,02,24,03,14,4.80
2013,02,24,03,15,4.80
2013,02,24,03,16,3.20
2013,02,24,03,17,4.80
2013,02,24,03,18,8.10
2013,02,24,03,19,9.60
2013,02,24,03,20,8.10
2013,02,24,03,21,6.40
2013,02,24,03,22,6.40
2013,02,24,03,23,6.40
2013,02,24,03,24,3.20
2013,02,24,03,25,4.80
2013,02,24,03,26,4.80
2013,02,24,03,27,4.80
2013,02,24,03,28,3.20
2013,02,24,03,29,3.20
2013,02,24,03,30,3.20
2013,02,24,03,31,3.20
2013,02,24,03,32,3.20
2013,02,24,03,33,6.40
2013,02,24,03,34,3.20
2013,02,24,03,35,3.20
2013,02,24,03,36,6.40
2013,02,24,03,37,6.40
2013,02,24,03,38,3.20
2013,02,24,03,39,1.60
2013,02,24,03,40,4.80
2013,02,24,03,41,3.20
2013,02,24,03,42,4.80
2013,02,24,03,43,3.20
2013,02,24,03,44,4.80
2013,02,24,03,45,3.20
2013,02,24,03,47,1.60
2013,02,24,03,48,1.60
2013,02,24,03,49,1.60
2013,02,24,03,50,1.60
2013,02,24,03,52,1.60
2013,02,24,03,54,3.20
2013,02,24,03,55,3.20
2013,02,24,03,56,1.60
2013,02,24,03,57,1.60
2013,02,24,03,58,3.20
2013,02,24,04,00,3.20
2013,02,24,04,01,1.60
2013,02,24,04,02,1.60
2013,02,24,04,03,1.60
2013,02,24,04,04,1.60
2013,02,24,04,07,1.60
2013,02,24,04,09,1.60
2013,02,24,04,10,1.60
2013,02,24,04,11,1.60
2013,02,24,04,14,3.20
2013,02,24,04,15,1.60
2013,02,24,04,16,3.20
2013,02,24,04,17,6.40
2013,02,24,04,18,3.20
2013,02,24,04,19,1.60
2013,02,24,04,20,6.40
2013,02,24,04,21,3.20
2013,02,24,04,22,3.20
2013,02,24,04,23,4.80
2013,02,24,04,24,3.20
2013,02,24,04,25,3.20
2013,02,24,04,26,4.80
2013,02,24,04,27,1.60
2013,02,24,04,34,1.60
2013,02,24,04,42,1.60
2013,02,24,04,43,1.60
2013,02,24,05,14,1.60
2013,02,24,05,15,1.60
2013,02,24,05,19,1.60
2013,02,24,05,20,1.60
2013,02,24,05,21,4.80
2013,02,24,05,22,3.20
2013,02,24,05,23,3.20
2013,02,24,05,24,3.20
2013,02,24,05,25,3.20
2013,02,24,05,26,3.20
2013,02,24,05,27,4.80
2013,02,24,05,28,6.40
2013,02,24,05,29,4.80
2013,02,24,05,30,3.20
2013,02,24,05,31,1.60
2013,02,24,05,32,8.10
2013,02,24,05,33,4.80
2013,02,24,05,34,1.60
2013,02,24,05,35,6.40
2013,02,24,05,36,1.60
2013,02,24,05,37,1.60
2013,02,24,05,38,8.10
2013,02,24,05,39,4.80
2013,02,24,05,40,6.40
2013,02,24,05,41,8.10
2013,02,24,05,42,9.60
2013,02,24,05,43,4.80
2013,02,24,05,44,6.40
2013,02,24,05,45,4.80
2013,02,24,05,46,6.40
2013,02,24,05,47,1.60
2013,02,24,05,48,3.20
2013,02,24,05,49,4.80
2013,02,24,05,50,6.40
2013,02,24,05,51,4.80
2013,02,24,05,52,6.40
2013,02,24,05,53,6.40
2013,02,24,05,54,8.10
2013,02,24,05,55,3.20
2013,02,24,05,56,3.20
2013,02,24,05,57,4.80
2013,02,24,05,58,8.10
2013,02,24,05,59,6.40
2013,02,24,06,00,3.20
2013,02,24,06,01,4.80
2013,02,24,06,02,8.10
2013,02,24,06,03,12.90
2013,02,24,06,04,14.50
2013,02,24,06,05,4.80
2013,02,24,06,06,6.40
2013,02,24,06,07,4.80
2013,02,24,06,08,8.10
2013,02,24,06,09,8.10
2013,02,24,06,10,8.10
2013,02,24,06,11,6.40
2013,02,24,06,12,4.80
2013,02,24,06,13,3.20
2013,02,24,06,14,6.40
2013,02,24,06,15,3.20
2013,02,24,06,16,1.60
2013,02,24,06,18,4.80
2013,02,24,06,19,1.60
2013,02,24,06,20,3.20
2013,02,24,06,21,1.60
2013,02,24,06,22,4.80
2013,02,24,06,23,3.20
2013,02,24,06,24,1.60
2013,02,24,06,25,4.80
2013,02,24,06,26,9.60
2013,02,24,06,27,4.80
2013,02,24,06,28,1.60
2013,02,24,06,29,4.80
2013,02,24,06,30,4.80
2013,02,24,06,31,4.80
2013,02,24,06,32,1.60
2013,02,24,06,33,6.40
2013,02,24,06,34,3.20
2013,02,24,06,35,4.80
2013,02,24,06,36,4.80
2013,02,24,06,37,4.80
2013,02,24,06,38,3.20
2013,02,24,06,39,1.60
2013,02,24,06,40,1.60
2013,02,24,06,41,3.20
2013,02,24,06,42,3.20
2013,02,24,06,43,4.80
2013,02,24,06,44,4.80
2013,02,24,06,45,4.80
2013,02,24,06,46,4.80
2013,02,24,06,47,4.80
2013,02,24,06,48,1.60
2013,02,24,06,49,3.20
2013,02,24,06,50,3.20
2013,02,24,06,51,1.60
2013,02,24,06,52,6.40
2013,02,24,06,53,4.80
2013,02,24,06,54,4.80
2013,02,24,06,55,4.80
2013,02,24,06,56,4.80
2013,02,24,06,57,6.40
2013,02,24,06,58,6.40
2013,02,24,06,59,6.40
2013,02,24,07,00,1.60
2013,02,24,07,01,3.20
2013,02,24,07,02,4.80
2013,02,24,07,03,1.60
2013,02,24,07,04,1.60
2013,02,24,07,05,1.60
2013,02,24,07,06,3.20
2013,02,24,07,07,3.20
2013,02,24,07,08,1.60
2013,02,24,07,09,3.20
2013,02,24,07,10,1.60
2013,02,24,07,11,1.60
2013,02,24,07,12,6.40
2013,02,24,07,13,6.40
2013,02,24,07,14,4.80
2013,02,24,07,15,4.80
2013,02,24,07,16,14.50
2013,02,24,07,17,6.40
2013,02,24,07,20,3.20
2013,02,24,07,21,3.20
2013,02,24,07,22,3.20
2013,02,24,07,24,1.60
2013,02,24,07,25,1.60
2013,02,24,07,26,1.60
2013,02,24,07,28,1.60
2013,02,24,07,29,6.40
2013,02,24,07,30,11.30
2013,02,24,07,31,3.20
2013,02,24,07,32,3.20
2013,02,24,07,33,1.60
2013,02,24,07,34,1.60
2013,02,24,07,35,3.20
2013,02,24,07,36,1.60
2013,02,24,07,37,3.20
2013,02,24,07,39,1.60
2013,02,24,07,40,4.80
2013,02,24,07,41,1.60
2013,02,24,07,42,1.60
2013,02,24,07,43,3.20
2013,02,24,07,44,3.20
2013,02,24,07,45,1.60
2013,02,24,07,46,4.80
2013,02,24,07,47,4.80
2013,02,24,07,48,3.20
2013,02,24,07,49,3.20
2013,02,24,07,50,3.20
2013,02,24,07,51,3.20
2013,02,24,07,52,1.60
2013,02,24,07,53,3.20
2013,02,24,07,54,1.60
2013,02,24,07,55,1.60
2013,02,24,07,57,1.60
2013,02,24,07,58,1.60
2013,02,24,07,59,4.80
2013,02,24,08,00,3.20
2013,02,24,08,01,4.80
2013,02,24,08,02,3.20
2013,02,24,08,03,4.80
2013,02,24,08,04,6.40
2013,02,24,08,05,1.60
2013,02,24,08,06,1.60
2013,02,24,08,07,3.20
2013,02,24,08,08,4.80
2013,02,24,08,09,6.40
2013,02,24,08,10,3.20
2013,02,24,08,11,3.20
2013,02,24,08,12,3.20
2013,02,24,08,14,1.60
2013,02,24,08,15,1.60
2013,02,24,08,16,3.20
2013,02,24,08,17,1.60
2013,02,24,08,18,4.80
2013,02,24,08,19,6.40
2013,02,24,08,20,6.40
2013,02,24,08,21,4.80
2013,02,24,08,22,3.20
2013,02,24,08,23,1.60
2013,02,24,08,24,1.60
2013,02,24,08,25,1.60
2013,02,24,08,26,3.20
2013,02,24,08,27,1.60
2013,02,24,08,28,6.40
2013,02,24,08,29,3.20
2013,02,24,08,30,4.80
2013,02,24,08,31,3.20
2013,02,24,08,32,1.60
2013,02,24,08,33,1.60
2013,02,24,08,34,4.80
2013,02,24,08,35,4.80
2013,02,24,08,36,4.80
2013,02,24,08,37,3.20
2013,02,24,08,38,1.60
2013,02,24,08,39,1.60
2013,02,24,08,40,3.20
2013,02,24,08,41,4.80
2013,02,24,08,42,4.80
2013,02,24,08,43,4.80
2013,02,24,08,44,3.20
2013,02,24,08,45,8.10
2013,02,24,08,46,6.40
2013,02,24,08,47,3.20
2013,02,24,08,48,9.60
2013,02,24,08,49,4.80
2013,02,24,08,50,3.20
2013,02,24,08,51,3.20
2013,02,24,08,52,3.20
2013,02,24,08,53,1.60
2013,02,24,08,54,1.60
2013,02,24,08,55,1.60
2013,02,24,08,56,1.60
2013,02,24,08,57,3.20
2013,02,24,08,58,3.20
2013,02,24,08,59,4.80
2013,02,24,09,00,6.40
2013,02,24,09,01,4.80
2013,02,24,09,02,9.60
2013,02,24,09,03,6.40
2013,02,24,09,04,1.60
2013,02,24,09,05,1.60
2013,02,24,09,07,1.60
2013,02,24,09,08,3.20
2013,02,24,09,09,1.60
2013,02,24,09,10,4.80
2013,02,24,09,11,9.60
2013,02,24,09,12,6.40
2013,02,24,09,13,3.20
2013,02,24,09,15,3.20
2013,02,24,09,16,3.20
2013,02,24,09,17,4.80
2013,02,24,09,18,3.20
2013,02,24,09,19,4.80
2013,02,24,09,20,4.80
2013,02,24,09,21,3.20
2013,02,24,09,22,1.60
2013,02,24,09,23,1.60
2013,02,24,09,24,4.80
2013,02,24,09,25,3.20
2013,02,24,09,26,4.80
2013,02,24,09,27,4.80
2013,02,24,09,28,4.80
2013,02,24,09,29,8.10
2013,02,24,09,30,4.80
2013,02,24,09,31,4.80
2013,02,24,09,32,3.20
2013,02,24,09,33,3.20
2013,02,24,09,34,4.80
2013,02,24,09,35,3.20
2013,02,24,09,36,1.60
2013,02,24,09,37,1.60
2013,02,24,09,38,3.20
2013,02,24,09,39,1.60
2013,02,24,09,40,9.60
2013,02,24,09,41,6.40
2013,02,24,09,42,8.10
2013,02,24,09,43,6.40
2013,02,24,09,44,4.80
2013,02,24,09,45,4.80
2013,02,24,09,46,3.20
2013,02,24,09,47,3.20
2013,02,24,09,48,3.20
2013,02,24,09,49,6.40
2013,02,24,09,50,3.20
2013,02,24,09,51,1.60
2013,02,24,09,52,3.20
2013,02,24,09,53,1.60
2013,02,24,09,54,3.20
2013,02,24,09,55,1.60
2013,02,24,09,57,3.20
2013,02,24,09,58,1.60
2013,02,24,09,59,1.60
2013,02,24,10,00,1.60
2013,02,24,10,01,4.80
2013,02,24,10,02,1.60
2013,02,24,10,03,3.20
2013,02,24,10,04,3.20
2013,02,24,10,05,6.40
2013,02,24,10,06,4.80
2013,02,24,10,07,4.80
2013,02,24,10,08,8.10
2013,02,24,10,09,3.20
2013,02,24,10,10,3.20
2013,02,24,10,11,4.80
2013,02,24,10,12,6.40
2013,02,24,10,13,4.80
2013,02,24,10,14,4.80
2013,02,24,10,15,4.80
2013,02,24,10,16,4.80
2013,02,24,10,17,1.60
2013,02,24,10,18,6.40
2013,02,24,10,19,4.80
2013,02,24,10,20,1.60
2013,02,24,10,21,3.20
2013,02,24,10,23,1.60
2013,02,24,10,24,3.20
2013,02,24,10,25,6.40
2013,02,24,10,26,3.20
2013,02,24,10,27,3.20
2013,02,24,10,28,3.20
2013,02,24,10,29,8.10
2013,02,24,10,30,6.40
2013,02,24,10,31,1.60
2013,02,24,10,32,1.60
2013,02,24,10,36,1.60
2013,02,24,10,37,1.60
2013,02,24,10,38,3.20
2013,02,24,10,39,3.20
2013,02,24,10,40,3.20
2013,02,24,10,41,3.20
2013,02,24,10,42,4.80
2013,02,24,10,43,4.80
2013,02,24,10,44,3.20
2013,02,24,10,45,6.40
2013,02,24,10,46,6.40
2013,02,24,10,47,4.80
2013,02,24,10,48,4.80
2013,02,24,10,49,4.80
2013,02,24,10,50,1.60
2013,02,24,10,51,1.60
2013,02,24,10,52,1.60
2013,02,24,10,53,4.80
2013,02,24,10,55,1.60
2013,02,24,10,56,1.60
2013,02,24,10,57,3.20
2013,02,24,10,58,3.20
2013,02,24,10,59,1.60
2013,02,24,11,00,1.60
2013,02,24,11,01,3.20
2013,02,24,11,02,3.20
2013,02,24,11,03,3.20
2013,02,24,11,04,1.60
2013,02,24,11,05,1.60
2013,02,24,11,06,1.60
2013,02,24,11,10,1.60
2013,02,24,11,12,3.20
2013,02,24,11,13,4.80
2013,02,24,11,14,3.20
2013,02,24,11,16,3.20
2013,02,24,11,17,4.80
2013,02,24,11,18,4.80
2013,02,24,11,19,1.60
2013,02,24,11,20,1.60
2013,02,24,11,21,1.60
2013,02,24,11,22,1.60
2013,02,24,11,25,1.60
2013,02,24,11,26,3.20
2013,02,24,11,28,3.20
2013,02,24,11,29,4.80
2013,02,24,11,30,3.20
2013,02,24,11,31,3.20
2013,02,24,11,32,4.80
2013,02,24,11,33,6.40
2013,02,24,11,34,4.80
2013,02,24,11,35,4.80
2013,02,24,11,36,6.40
2013,02,24,11,37,8.10
2013,02,24,11,38,6.40
2013,02,24,11,39,4.80
2013,02,24,11,40,3.20
2013,02,24,11,41,3.20
2013,02,24,11,42,3.20
2013,02,24,11,43,3.20
2013,02,24,11,44,3.20
2013,02,24,11,45,1.60
2013,02,24,11,46,4.80
2013,02,24,11,47,4.80
2013,02,24,11,48,4.80
2013,02,24,11,49,6.40
2013,02,24,11,50,4.80
2013,02,24,11,51,3.20
2013,02,24,11,52,3.20
2013,02,24,11,53,3.20
2013,02,24,11,54,3.20
2013,02,24,11,55,3.20
2013,02,24,11,56,8.10
2013,02,24,11,57,8.10
2013,02,24,11,58,4.80
2013,02,24,11,59,3.20
2013,02,24,12,00,3.20
2013,02,24,12,01,3.20
2013,02,24,12,02,4.80
2013,02,24,12,03,4.80
2013,02,24,12,04,1.60
2013,02,24,12,05,3.20
2013,02,24,12,06,4.80
2013,02,24,12,07,4.80
2013,02,24,12,08,3.20
2013,02,24,12,09,4.80
2013,02,24,12,10,3.20
2013,02,24,12,11,4.80
2013,02,24,12,12,4.80
2013,02,24,12,13,1.60
2013,02,24,12,14,4.80
2013,02,24,12,15,4.80
2013,02,24,12,16,3.20
2013,02,24,12,17,3.20
2013,02,24,12,18,6.40
2013,02,24,12,19,4.80
2013,02,24,12,20,6.40
2013,02,24,12,21,6.40
2013,02,24,12,22,6.40
2013,02,24,12,23,6.40
2013,02,24,12,24,3.20
2013,02,24,12,25,4.80
2013,02,24,12,26,6.40
2013,02,24,12,27,9.60
2013,02,24,12,28,9.60
2013,02,24,12,29,8.10
2013,02,24,12,30,4.80
2013,02,24,12,31,4.80
2013,02,24,12,32,1.60
2013,02,24,12,33,3.20
2013,02,24,12,34,1.60
2013,02,24,12,35,8.10
2013,02,24,12,36,6.40
2013,02,24,12,37,8.10
2013,02,24,12,38,8.10
2013,02,24,12,39,6.40
2013,02,24,12,40,6.40
2013,02,24,12,41,8.10
2013,02,24,12,42,8.10
2013,02,24,12,43,9.60
2013,02,24,12,44,6.40
2013,02,24,12,45,4.80
2013,02,24,12,46,8.10
2013,02,24,12,47,4.80
2013,02,24,12,48,8.10
2013,02,24,12,49,6.40
2013,02,24,12,50,6.40
2013,02,24,12,51,3.20
2013,02,24,12,52,6.40
2013,02,24,12,53,8.10
2013,02,24,12,54,6.40
2013,02,24,12,55,4.80
2013,02,24,12,56,4.80
2013,02,24,12,57,4.80
2013,02,24,12,58,4.80
2013,02,24,12,59,4.80
2013,02,24,13,00,4.80
2013,02,24,13,01,4.80
2013,02,24,13,02,6.40
2013,02,24,13,03,3.20
2013,02,24,13,04,4.80
2013,02,24,13,05,1.60
2013,02,24,13,06,3.20
2013,02,24,13,07,1.60
2013,02,24,13,08,4.80
2013,02,24,13,09,4.80
2013,02,24,13,10,1.60
2013,02,24,13,12,1.60
2013,02,24,13,14,1.60
2013,02,24,13,15,1.60
2013,02,24,13,16,1.60
2013,02,24,13,19,1.60
2013,02,24,13,20,1.60
2013,02,24,13,22,1.60
2013,02,24,13,23,1.60
2013,02,24,13,24,1.60
2013,02,24,13,25,3.20
2013,02,24,13,26,3.20
2013,02,24,13,27,3.20
2013,02,24,13,28,4.80
2013,02,24,13,29,4.80
2013,02,24,13,30,1.60
2013,02,24,13,31,3.20
2013,02,24,13,32,1.60
2013,02,24,13,33,1.60
2013,02,24,13,34,3.20
2013,02,24,13,35,4.80
2013,02,24,13,36,6.40
2013,02,24,13,37,6.40
2013,02,24,13,38,6.40
2013,02,24,13,39,6.40
2013,02,24,13,40,3.20
2013,02,24,13,41,1.60
2013,02,24,13,42,4.80
2013,02,24,13,43,4.80
2013,02,24,13,44,3.20
2013,02,24,13,45,1.60
2013,02,24,13,46,4.80
2013,02,24,13,47,3.20
2013,02,24,13,48,1.60
2013,02,24,13,49,4.80
2013,02,24,13,50,4.80
2013,02,24,13,51,3.20
2013,02,24,13,52,6.40
2013,02,24,13,53,3.20
2013,02,24,13,54,1.60
2013,02,24,13,55,6.40
2013,02,24,13,56,4.80
2013,02,24,13,57,4.80
2013,02,24,13,58,4.80
2013,02,24,13,59,8.10
2013,02,24,14,00,8.10
2013,02,24,14,01,8.10
2013,02,24,14,02,6.40
2013,02,24,14,03,3.20
2013,02,24,14,04,1.60
2013,02,24,14,05,3.20
2013,02,24,14,06,4.80
2013,02,24,14,07,6.40
2013,02,24,14,08,3.20
2013,02,24,14,09,4.80
2013,02,24,14,10,3.20
2013,02,24,14,11,3.20
2013,02,24,14,12,6.40
2013,02,24,14,13,6.40
2013,02,24,14,14,3.20
2013,02,24,14,15,4.80
2013,02,24,14,16,9.60
2013,02,24,14,17,11.30
2013,02,24,14,18,4.80
2013,02,24,14,19,4.80
2013,02,24,14,20,3.20
2013,02,24,14,21,3.20
2013,02,24,14,22,9.60
2013,02,24,14,23,4.80
2013,02,24,14,24,8.10
2013,02,24,14,25,8.10
2013,02,24,14,26,9.60
2013,02,24,14,27,8.10
2013,02,24,14,28,6.40
2013,02,24,14,29,1.60
2013,02,24,14,30,1.60
2013,02,24,14,31,4.80
2013,02,24,14,32,11.30
2013,02,24,14,33,8.10
2013,02,24,14,34,9.60
2013,02,24,14,35,8.10
2013,02,24,14,36,6.40
2013,02,24,14,37,6.40
2013,02,24,14,38,8.10
2013,02,24,14,39,11.30
2013,02,24,14,40,11.30
2013,02,24,14,41,4.80
2013,02,24,14,42,3.20
2013,02,24,14,43,6.40
2013,02,24,14,44,9.60
2013,02,24,14,45,8.10
2013,02,24,14,46,6.40
2013,02,24,14,47,1.60
2013,02,24,14,48,1.60
2013,02,24,14,49,3.20
2013,02,24,14,50,4.80
2013,02,24,14,51,4.80
2013,02,24,14,52,8.10
2013,02,24,14,53,4.80
2013,02,24,14,54,3.20
2013,02,24,14,55,1.60
2013,02,24,14,56,3.20
2013,02,24,14,57,4.80
2013,02,24,14,58,1.60
2013,02,24,14,59,4.80
2013,02,24,15,00,6.40
2013,02,24,15,01,4.80
2013,02,24,15,02,1.60
2013,02,24,15,03,3.20
2013,02,24,15,04,4.80
2013,02,24,15,05,4.80
2013,02,24,15,06,4.80
2013,02,24,15,07,3.20
2013,02,24,15,08,6.40
2013,02,24,15,09,4.80
2013,02,24,15,11,1.60
2013,02,24,15,12,4.80
2013,02,24,15,13,4.80
2013,02,24,15,14,6.40
2013,02,24,15,15,6.40
2013,02,24,15,16,3.20
2013,02,24,15,17,9.60
2013,02,24,15,18,8.10
2013,02,24,15,19,6.40
2013,02,24,15,20,9.60
2013,02,24,15,21,8.10
2013,02,24,15,22,4.80
2013,02,24,15,23,4.80
2013,02,24,15,24,6.40
2013,02,24,15,25,11.30
2013,02,24,15,26,12.90
2013,02,24,15,27,6.40
2013,02,24,15,28,1.60
2013,02,24,15,29,3.20
2013,02,24,15,30,4.80
2013,02,24,15,31,3.20
2013,02,24,15,32,4.80
2013,02,24,15,33,3.20
2013,02,24,15,34,4.80
2013,02,24,15,35,4.80
2013,02,24,15,36,3.20
2013,02,24,15,37,1.60
2013,02,24,15,38,1.60
2013,02,24,15,39,6.40
2013,02,24,15,40,8.10
2013,02,24,15,41,8.10
2013,02,24,15,42,3.20
2013,02,24,15,43,4.80
2013,02,24,15,44,6.40
2013,02,24,15,45,8.10
2013,02,24,15,46,4.80
2013,02,24,15,47,3.20
2013,02,24,15,48,3.20
2013,02,24,15,49,6.40
2013,02,24,15,50,3.20
2013,02,24,15,51,8.10
2013,02,24,15,52,1.60
2013,02,24,15,53,3.20
2013,02,24,15,54,4.80
2013,02,24,15,55,4.80
2013,02,24,15,56,1.60
2013,02,24,15,57,3.20
2013,02,24,15,58,1.60
2013,02,24,15,59,4.80
2013,02,24,16,00,1.60
2013,02,24,16,01,1.60
2013,02,24,16,02,1.60
2013,02,24,16,03,1.60
2013,02,24,16,04,1.60
2013,02,24,16,05,3.20
2013,02,24,16,06,3.20
2013,02,24,16,09,1.60
2013,02,24,16,10,3.20
2013,02,24,16,11,3.20
2013,02,24,16,12,1.60
2013,02,24,16,13,1.60
2013,02,24,16,14,3.20
2013,02,24,16,15,3.20
2013,02,24,16,16,3.20
2013,02,24,16,17,1.60
2013,02,24,16,18,1.60
2013,02,24,16,19,1.60
2013,02,24,16,20,1.60
2013,02,24,16,21,1.60
2013,02,24,16,22,1.60
2013,02,24,16,25,1.60
2013,02,24,16,28,3.20
2013,02,24,16,29,1.60
2013,02,24,16,30,1.60
2013,02,24,16,35,1.60
2013,02,24,16,39,1.60
2013,02,24,16,40,1.60
2013,02,24,16,41,1.60
2013,02,24,16,50,1.60
2013,02,24,16,51,1.60
2013,02,24,16,52,1.60
2013,02,24,16,53,1.60
2013,02,24,17,21,1.60
2013,02,24,17,22,1.60
2013,02,24,17,23,3.20
2013,02,24,17,28,1.60
2013,02,24,17,47,1.60
2013,02,24,17,52,1.60
2013,02,24,17,53,1.60
2013,02,24,17,59,1.60
2013,02,24,18,01,1.60
2013,02,24,18,02,1.60
2013,02,24,18,05,1.60
2013,02,24,18,06,1.60
2013,02,24,18,07,1.60
2013,02,24,18,08,1.60
2013,02,24,18,10,3.20
2013,02,24,18,11,3.20
2013,02,24,18,12,1.60
2013,02,24,18,14,1.60
2013,02,24,18,28,3.20
2013,02,24,18,29,1.60
2013,02,24,18,32,1.60
2013,02,24,18,33,1.60
2013,02,24,18,34,1.60
2013,02,24,18,35,1.60
2013,02,24,18,41,3.20
2013,02,24,18,42,4.80
2013,02,24,18,43,4.80
2013,02,24,18,44,3.20
2013,02,24,18,45,3.20
2013,02,24,18,46,1.60
2013,02,24,18,47,1.60
2013,02,24,18,50,3.20
2013,02,24,18,51,3.20
2013,02,24,18,52,3.20
2013,02,24,18,53,3.20
2013,02,24,18,54,1.60
2013,02,24,18,59,1.60
2013,02,24,19,00,1.60
2013,02,24,19,01,1.60
2013,02,24,19,02,1.60
2013,02,24,19,03,3.20
2013,02,24,19,04,3.20
2013,02,24,19,05,1.60
2013,02,24,19,06,1.60
2013,02,24,19,08,3.20
2013,02,24,19,09,3.20
2013,02,24,19,10,3.20
2013,02,24,19,11,3.20
2013,02,24,19,12,3.20
2013,02,24,19,13,1.60
2013,02,24,19,19,1.60
2013,02,24,19,26,1.60
2013,02,24,19,27,1.60
2013,02,24,19,28,1.60
2013,02,24,19,30,1.60
2013,02,24,19,31,1.60
2013,02,24,19,33,1.60
2013,02,24,19,34,1.60
2013,02,24,19,36,1.60
2013,02,24,19,37,3.20
2013,02,24,19,38,3.20
2013,02,24,19,39,4.80
2013,02,24,19,40,4.80
2013,02,24,19,41,3.20
2013,02,24,19,42,3.20
2013,02,24,19,43,3.20
2013,02,24,19,44,3.20
2013,02,24,19,45,3.20
2013,02,24,19,46,1.60
2013,02,24,19,47,1.60
2013,02,24,19,48,3.20
2013,02,24,19,49,3.20
2013,02,24,19,50,4.80
2013,02,24,19,51,4.80
2013,02,24,19,52,1.60
2013,02,24,19,53,3.20
2013,02,24,19,54,4.80
2013,02,24,19,55,1.60
2013,02,24,19,56,3.20
2013,02,24,19,57,3.20
2013,02,24,19,58,3.20
2013,02,24,20,01,1.60
2013,02,24,20,02,3.20
2013,02,24,20,03,3.20
2013,02,24,20,04,3.20
2013,02,24,20,05,4.80
2013,02,24,20,06,3.20
2013,02,24,20,10,1.60
2013,02,24,20,11,1.60
2013,02,24,20,12,1.60
2013,02,24,20,13,1.60
2013,02,24,20,14,1.60
2013,02,24,20,15,1.60
2013,02,24,20,16,1.60
2013,02,24,20,17,1.60
2013,02,24,20,19,1.60
2013,02,24,20,21,1.60
2013,02,24,20,22,1.60
2013,02,24,20,23,1.60
2013,02,24,20,26,1.60
2013,02,24,20,35,1.60
2013,02,24,20,36,3.20
2013,02,24,20,37,3.20
2013,02,24,20,38,3.20
2013,02,24,20,39,3.20
2013,02,24,20,40,3.20
2013,02,24,20,41,3.20
2013,02,24,20,42,3.20
2013,02,24,20,43,3.20
2013,02,24,20,44,4.80
2013,02,24,20,45,4.80
2013,02,24,20,46,4.80
2013,02,24,20,47,4.80
2013,02,24,20,48,4.80
2013,02,24,20,49,4.80
2013,02,24,20,50,4.80
2013,02,24,20,51,4.80
2013,02,24,20,52,4.80
2013,02,24,20,53,3.20
2013,02,24,20,54,3.20
2013,02,24,20,55,1.60
2013,02,24,20,56,3.20
2013,02,24,20,57,1.60
2013,02,24,20,58,1.60
2013,02,24,20,59,1.60
2013,02,24,21,00,1.60
2013,02,24,21,01,1.60
2013,02,24,21,04,1.60
2013,02,24,21,09,1.60
2013,02,24,21,11,1.60
2013,02,24,21,17,3.20
2013,02,24,21,18,3.20
2013,02,24,21,19,3.20
2013,02,24,21,21,3.20
2013,02,24,21,22,3.20
2013,02,24,21,23,3.20
2013,02,24,21,24,3.20
2013,02,24,21,25,1.60
2013,02,24,21,26,3.20
2013,02,24,21,28,1.60
2013,02,24,21,29,1.60
2013,02,24,21,31,3.20
2013,02,24,21,32,4.80
2013,02,24,21,33,3.20
2013,02,24,21,34,3.20
2013,02,24,21,35,3.20
2013,02,24,21,36,3.20
2013,02,24,21,37,3.20
2013,02,24,21,38,3.20
2013,02,24,21,39,3.20
2013,02,24,21,40,3.20
2013,02,24,21,41,3.20
2013,02,24,21,42,3.20
2013,02,24,21,43,1.60
2013,02,24,21,45,1.60
2013,02,24,21,46,4.80
2013,02,24,21,47,3.20
2013,02,24,21,48,3.20
2013,02,24,21,49,4.80
2013,02,24,21,50,4.80
2013,02,24,21,51,3.20
2013,02,24,21,52,3.20
2013,02,24,21,53,3.20
2013,02,24,21,54,1.60
2013,02,24,21,55,1.60
2013,02,24,21,56,1.60
2013,02,24,21,57,3.20
2013,02,24,21,58,1.60
2013,02,24,21,59,1.60
2013,02,24,22,02,3.20
2013,02,24,22,03,1.60
2013,02,24,22,04,1.60
2013,02,24,22,05,1.60
2013,02,24,22,11,1.60
2013,02,24,22,13,1.60
2013,02,24,22,14,1.60
2013,02,24,22,15,1.60
2013,02,24,22,20,1.60
2013,02,24,22,21,1.60
2013,02,24,22,24,1.60
2013,02,24,22,27,1.60
2013,02,24,22,29,3.20
2013,02,24,22,31,3.20
2013,02,24,22,32,3.20
2013,02,24,22,33,3.20
2013,02,24,22,34,3.20
2013,02,24,22,45,1.60
2013,02,24,22,46,1.60
2013,02,24,22,55,1.60
2013,02,24,22,56,3.20
2013,02,24,22,58,1.60